Zurück zum Katalog

ATLAS 5 CENTAUR DEB

LostHEO
NORAD 46652·DEBRIS·🇺🇸 United States

Gestartet Sep 17, 2014 von Cape Canaveral Space Force Station

Loading…

Nächste Überflüge (nächste 24 Stunden)

TLE

VeraltetSource: Space-Track

Epoche: Apr 8, 2024, 13:37 UTC

1 46652U 14055DC  24099.56760409 -.00000108  00000-0  00000+0 0  9998
2 46652  20.3344 235.1777 3967316 355.1400   1.7695  1.82545949 23219

Verfolge ATLAS 5 CENTAUR DEB in Echtzeit mit AllMySat

Download on the App Store